DH7LK-5 Weather Reports


time (UTC)temp
C
wind
direction
speed
KPH
gust
KPH
rain 1hr
cm
rain 24hr
cm
rain mn
cm
humidity
%
barometer
mb
20260507144758 11 122 1.6 6.4 0.00 0.00 0.00 82 1015.4
20260507134755 11 129 4.8 9.7 0.00 0.00 0.00 83 1015.2
20260507124753 10 153 6.4 14.5 0.00 0.00 0.00 86 1014.9
20260507114751 9 52 6.4 8.0 0.00 0.00 0.00 88 1014.7
20260507104750 8 66 8.0 11.3 0.00 0.00 0.00 91 1014.4
20260507094746 9 103 8.0 14.5 0.00 0.00 0.00 88 1013.8
20260507091745 9 73 9.7 16.1 0.00 0.00 0.00 89 1013.3
20260507084742 9 103 9.7 17.7 0.00 0.00 0.00 89 1013.0
20260507081740 8 105 9.7 17.7 0.00 0.00 0.00 90 1012.6
20260507074734 8 83 12.9 24.1 0.00 0.00 0.00 91 1012.4
20260507065359 8 94 9.7 22.5 0.00 0.00 0.00 93 1012.0
20260507064701 8 94 9.7 22.5 0.00 0.00 0.00 93 1012.0
20260507061702 8 128 9.7 16.1 0.00 0.00 0.00 93 1011.6
20260507054700 8 53 8.0 11.3 0.00 0.00 0.00 94 1011.3
20260507051659 8 150 9.7 17.7 0.00 0.00 0.00 92 1011.0
20260507044658 8 142 8.0 14.5 0.00 0.00 0.00 93 1010.8
20260507041658 8 134 6.4 14.5 0.00 0.00 0.00 94 1010.6
20260507034657 8 120 8.0 17.7 0.00 0.00 0.00 95 1010.4
20260507031656 8 111 8.0 14.5 0.00 0.00 0.00 94 1010.2
20260507024655 8 62 8.0 12.9 0.00 0.00 0.00 92 1010.1
20260507021655 8 121 9.7 17.7 0.00 0.00 0.00 93 1009.8
20260507014654 8 121 9.7 16.1 0.00 0.00 0.00 94 1009.6
20260507011653 7 80 8.0 11.3 0.00 0.00 0.00 94 1009.8
20260507004653 8 113 9.7 19.3 0.00 0.00 0.00 94 1009.5
20260507001654 8 117 12.9 20.9 0.00 0.00 0.00 94 1009.2
20260506234651 9 124 12.9 27.4 0.00 0.00 2.21 92 1009.0
20260506231650 10 117 9.7 17.7 0.00 0.00 2.21 92 1008.8
20260506224650 11 79 9.7 19.3 0.00 0.00 2.21 90 1008.7
20260506221647 11 46 6.4 9.7 0.00 0.00 2.21 89 1008.4
20260506214646 11 48 8.0 12.9 0.00 0.00 2.21 89 1008.6
20260506211645 11 167 8.0 12.9 0.00 0.00 2.21 91 1008.4
20260506204641 11 63 6.4 9.7 0.00 0.00 2.21 92 1008.0
20260506201640 11 60 8.0 11.3 0.00 0.00 2.21 93 1007.9
20260506194638 11 52 4.8 9.7 0.00 0.00 2.21 92 1008.0
20260506191636 11 3 4.8 9.7 0.00 0.00 2.21 92 1007.8
20260506184635 12 118 6.4 9.7 0.00 0.00 2.21 93 1007.4
20260506181634 12 83 9.7 22.5 0.00 0.00 2.21 93 1006.9
20260506174633 12 141 6.4 12.9 0.00 0.00 2.21 91 1006.9
20260506171633 13 124 8.0 12.9 0.00 0.00 2.21 90 1006.6
20260506164632 13 122 9.7 17.7 0.00 0.00 2.21 90 1006.6
20260506162005 13 63 6.4 9.7 0.00 0.00 2.21 92 1006.3
20260506161630 13 63 6.4 9.7 0.00 0.00 2.21 92 1006.3
20260506154629 13 121 6.4 12.9 0.00 0.00 2.21 92 1006.7